Showing default

COSMOS 1833, 17589

Orbit data source: Space-Track

COSMOS 1833, 17589 is a payload satellite owned by GRU (CIS) in LEO that was launched on Wed, 18 Mar 1987 UTC via a ZENIT-2 launch vehicle from the Tyuratam Missile And Space Complex (TTMTR). Payloads include a variety of satellites, spacecraft, and rockets equipped with specific instruments for various scientific and technological missions. These include communications satellites like Starlink; space stations such as the ISS; scientific satellites like the Hubble; Earth observation satellites from companies like Planet Labs, Umbra, and HawkEye 360; GPS; miniature CubeSats for education and research; and military/defense satellites.

Loading next visibility...
COSMOS 1833 details
Identifier
17589, 1987-027A
Orbit
LEO
Last TLE update11 hours ago
Origin
Flag of CISGRU (CIS)
ManufacturerYuzhnoe
MissionDefense Sigint
Bus & MotorTSELINA-2, Unknown motor
Mass3,250 kg wet, 3,250 kg dry
Launch date (UTC)
1987-03-18 (38 years ago)
Launch vehicle
ZENIT-2
Launch site
Tyuratam Missile And Space Complex (TTMTR)
Object type
Payload
Rocket body
Debris
Shape & HBRCyl + 2 Pan + 1 Ant, 22.7 m
Radar Cross Section16.265 m², Large (>1 m²)

Expand to show TLE details & history

TLE from 11 hours ago
0 COSMOS 1833
1 17589U 87027A   24361.16905875 -.00000016  00000-0  16899-4 0  9996
2 17589  70.9137 167.7384 0023650 149.9959 210.2522 14.12989148948368
Epoch: 2024-12-26T04:03Z
Definitive object data (Epoch: 2024-12-26T04:03:26.675Z)
Latitude-0.00014°
Longitude11.72489°
Altitude866.33 km
Speed7.412 km/s
True Right ascension11h 10m 57s
True Declination0° 00' 01"
Sunlit
Object was in daylight at TLE epoch
Visualization TLE readout
Latitude-21.14131°
Longitude-161.60251°
Altitude846.274 km
Speed7.434 km/s
Apparent Right ascension00h 51m 13s
Apparent Declination-31° 38' 52"
Sunlit
Object is in daylight
Visualization observer readout
Local Sidereal Time14:34:11
Azimuth76.375° E
Elevation-67.641°
Doppler factor1
Orbital elements
Apogee altitude864.184 km
Perigee altitude830.009 km
Semi-major axis7,225.233 km
Eccentricity0.002365
Inclination70.9137°
RAAN167.7384°
Arg. of periapsis149.9959°
True anomaly210.11601°
Mean anomaly210.2522°
Eccentric anomaly210.18407°
Mean motion3.53399 °/min
BSTAR0.000016899
Orbital period101.87 mins
Loading maneuver chart data...
Loading historical data...
Loading historical data...
Loading historical data...
Loading historical data...
Loading historical data...
Loading historical data...
Loading historical data...

COSMOS 1833 Visibility forecast

Observer location: undefined°, undefined

Span
Click to sort rows by Start time (UTC) header in descending order
Start Az.
Max El. time (UTC)
Max El. Az.
Max El.
End time (UTC)
End Az.
9 mins2024-12-26 21:36:13.368Z359.531° N2024-12-26 21:40:13.368Z55.94° ENE28.733°2024-12-26 21:45:13.368Z121.717° SE
8 mins2024-12-26 23:21:13.368Z307.051° NW2024-12-26 23:24:13.368Z261.213° W28.556°2024-12-26 23:29:13.368Z194.269° SSW
9 mins2024-12-27 12:28:13.368Z193.972° SSW2024-12-27 12:32:13.368Z116.387° SE44.238°2024-12-27 12:37:13.368Z26.816° NE
5 mins2024-12-27 14:15:13.368Z286.297° WNW2024-12-27 14:17:13.368Z310.984° NW16.335°2024-12-27 14:20:13.368Z345.279° N
|